[[{"header":{"parameterUnit":"m.s-1","parameterCategory":2,"la1":30.2991,"la2":30.254,"lo1":-89.0895,"lo2":-89.0444,"dy":0.0017,"dx":0.0017,"nx":28,"ny":28,"refTime":"2023-05-01T21:00:00:Z","depth":"0","parameterNumber":2,"parameterNumberName":"U-component_of_CURRENTS"},"data":[0,0,0,0,0,0,0,0,0,0,0,0,0,0,0,0,0,0,0,0,0,0,0,0,0,0,0,0,0,0,0,0,0,0,0,0,0,0,0,0,0,0,0,0,0,0,0,0,0,0,0,0,0,0,0,0,0,0,0.3177,0.3177,0,0.319,0.319,0.319,0.3242,0.3243,0.3244,0.3245,0.3289,0.3289,0.3289,0,0,0,0,0,0,0,0,0,0,0,0,0,0.3152,0.3153,0.3177,0.3177,0.3177,0.319,0.319,0.319,0.3241,0.3243,0.3244,0.3246,0.3289,0.3289,0.3289,0,0,0,0,0,0,0,0,0,0,0,0,0,0.3164,0.3153,0.3177,0.3205,0.3207,0.319,0.319,0.319,0.3241,0.3243,0.3245,0.3246,0.3289,0.3289,0.3289,0.3253,0,0,0.329,0.329,0,0,0,0,0,0,0,0,0.3163,0.3164,0.32,0.3203,0.3206,0.3216,0.3198,0.3213,0.3241,0.3228,0.3245,0.3247,0.3267,0.3269,0.3266,0.3255,0.3257,0.329,0.329,0.329,0.329,0,0,0,0,0,0,0,0.3162,0.3164,0.3182,0.32,0.3204,0.3202,0.3206,0.3201,0.3237,0.3229,0.3233,0.3234,0.3269,0.3266,0.3268,0.3258,0.329,0.329,0.329,0.329,0.3268,0.3267,0,0,0,0,0,0,0.3162,0.3163,0.3181,0.3182,0.3189,0.3201,0.3205,0.3211,0.3236,0.3242,0.3233,0.3237,0.3265,0.3267,0.3269,0.3242,0.329,0.329,0.329,0.3268,0.3268,0.3267,0,0,0,0,0,0,0.3161,0.3163,0.3181,0.3173,0.3175,0.32,0.3205,0.321,0.3209,0.3239,0.3246,0.3227,0.3266,0.3269,0.327,0.3244,0.329,0.329,0.3269,0.3268,0.3267,0.3178,0,0,0,0,0,0,0.316,0.3163,0.3158,0.3173,0.3176,0.3158,0.3204,0.3209,0.3207,0.3212,0.3236,0.3242,0.3268,0.3269,0.327,0.3245,0.329,0.327,0.3269,0.3268,0.3182,0.3174,0.3168,0,0,0,0,0,0.316,0.3136,0.3158,0.3159,0.3171,0.3157,0.3157,0.318,0.3205,0.3189,0.3219,0.3241,0.3263,0.3268,0.3269,0.3243,0.3271,0.3269,0.3268,0.3185,0.3176,0.3168,0,0,0,0,0,0,0.3087,0.3139,0.3164,0.3148,0.3151,0.3166,0.3146,0.3169,0.3177,0.3183,0.3225,0.3232,0.3231,0.3246,0.3251,0.3237,0.3273,0.3271,0.321,0.3201,0.3194,0.3182,0.329,0,0,0,0,0,0.3077,0.3093,0.3121,0.31,0.3103,0.3125,0.312,0.3137,0.315,0.3156,0.3177,0.3201,0.3221,0.322,0.3239,0.3212,0.3226,0.3201,0.3194,0.3188,0.318,0.3186,0.3179,0.3263,0.3263,0.3263,0,0,0.3034,0.3068,0.307,0.3089,0.3093,0.3081,0.3125,0.3107,0.3098,0.3156,0.3143,0.3177,0.3214,0.3203,0.3201,0.321,0.3168,0.3186,0.318,0.3176,0.3184,0.3176,0.3168,0.3262,0.3262,0.3262,0,0,0.2961,0.2992,0.2986,0.2994,0.3009,0.3027,0.3021,0.3035,0.3045,0.3036,0.309,0.3106,0.3117,0.3142,0.3157,0.3117,0.314,0.3124,0.306,0.3066,0.3059,0.3053,0.3039,0.3032,0.3107,0.3107,0.3107,0,0.2903,0.2914,0.2968,0.2961,0.2957,0.3002,0.2972,0.2982,0.2994,0.2993,0.3021,0.3056,0.3089,0.3088,0.3085,0.3099,0.3101,0.3086,0.3055,0.3049,0.3045,0.3032,0.3026,0.3103,0.3103,0.3104,0.3104,0,0.2844,0.2842,0.2825,0.2855,0.2853,0.2825,0.2859,0.2858,0.2882,0.2896,0.2901,0.295,0.2972,0.2985,0.3023,0.3005,0.3016,0.3053,0.3071,0.303,0.302,0.3015,0.3096,0.3098,0.3099,0.31,0,0,0.2722,0.2777,0.2767,0.2771,0.2796,0.2784,0.2774,0.2774,0.277,0.2786,0.2774,0.2815,0.2849,0.287,0.2918,0.2922,0.2893,0.2964,0.2966,0.2939,0.2884,0.2879,0.2873,0.2922,0.2921,0.292,0.2882,0,0.2647,0.2629,0.2677,0.2632,0.2618,0.2667,0.266,0.2671,0.2691,0.2692,0.2734,0.275,0.2802,0.2822,0.2828,0.2894,0.288,0.2899,0.2937,0.2938,0.293,0.2868,0.2909,0.2878,0.2878,0.2877,0.2877,0,0.2571,0.2576,0.2533,0.2554,0.255,0.2534,0.2541,0.2542,0.2567,0.2587,0.2601,0.2648,0.2665,0.2725,0.2763,0.2772,0.2812,0.2853,0.2854,0.2877,0.2924,0.2925,0.287,0.2928,0.287,0.287,0.2871,0,0.2477,0.247,0.2441,0.2441,0.247,0.2456,0.2469,0.2495,0.2495,0.2521,0.2523,0.2555,0.2578,0.2626,0.2716,0.2736,0.2759,0.28,0.2819,0.2818,0.2877,0.2883,0.2876,0.2807,0.2807,0.2808,0.2808,0,0.2391,0.2353,0.2396,0.2375,0.2334,0.2384,0.2352,0.2379,0.2405,0.2395,0.2461,0.2462,0.2558,0.2592,0.2669,0.2719,0.2716,0.2787,0.2803,0.2845,0.2848,0.2922,0.291,0.2806,0.2806,0.2807,0.2807,0,0.2278,0.2311,0.2264,0.2282,0.229,0.2252,0.2278,0.2271,0.2312,0.2301,0.2308,0.2373,0.2428,0.2515,0.2601,0.2654,0.267,0.2737,0.2767,0.2787,0.2849,0.2829,0.2576,0.248,0.2729,0.2729,0.2728,0,0.2209,0.2188,0.2182,0.2156,0.2155,0.2137,0.2145,0.2206,0.2205,0.2246,0.2233,0.2285,0.2323,0.2431,0.2571,0.2673,0.2626,0.2737,0.2784,0.2831,0.2823,0.2628,0.2551,0.282,0.282,0.2821,0.2821,0,0.2069,0.2078,0.2049,0.202,0.2006,0.2004,0.2016,0.2013,0.209,0.2097,0.212,0.2154,0.2294,0.243,0.2571,0.2651,0.2647,0.2744,0.2799,0.2878,0.2658,0.2585,0.2851,0.2824,0.2824,0.2823,0.2823,0.2823,0.1939,0.1899,0.1894,0.1856,0.1853,0.187,0.1857,0.1901,0.1914,0.1939,0.2006,0.2071,0.231,0.2532,0.2642,0.2844,0.264,0.2875,0.2839,0.2631,0.2544,0.2791,0.2783,0.2783,0.2782,0.2782,0.2781,0,0.1776,0.1789,0.1746,0.1716,0.1697,0.1745,0.1774,0.1774,0.1786,0.1853,0.1887,0.2111,0.2342,0.2586,0.2886,0.2967,0.2839,0.2952,0.2759,0.2673,0.296,0.2985,0.3013,0.3013,0.3013,0.3013,0.3013,0.3013,0.1691,0.1638,0.1648,0.1583,0.1578,0.1568,0.158,0.1605,0.1652,0.1731,0.1837,0.194,0.2239,0.2706,0.3016,0.3052,0.2889,0.2803,0.2676,0.3051,0.3044,0.3037,0.3062,0.3106,0.3106,0.2343,0.2339,0.2335]},{"header":{"parameterUnit":"m.s-1","parameterCategory":2,"la1":30.2991,"la2":30.254,"lo1":-89.0895,"lo2":-89.0444,"dy":0.0017,"dx":0.0017,"nx":28,"ny":28,"refTime":"2023-05-01T21:00:00:Z","depth":"0","parameterNumber":3,"parameterNumberName":"V-component_of_CURRENTS"},"data":[0,0,0,0,0,0,0,0,0,0,0,0,0,0,0,0,0,0,0,0,0,0,0,0,0,0,0,0,0,0,0,0,0,0,0,0,0,0,0,0,0,0,0,0,0,0,0,0,0,0,0,0,0,0,0,0,0,0,-0.0826,-0.0826,0,-0.0821,-0.0821,-0.0821,-0.0832,-0.0833,-0.0833,-0.0833,-0.0824,-0.0824,-0.0823,0,0,0,0,0,0,0,0,0,0,0,0,0,-0.0861,-0.086,-0.0826,-0.0826,-0.0826,-0.0821,-0.0821,-0.0821,-0.0832,-0.0833,-0.0833,-0.0833,-0.0824,-0.0824,-0.0823,0,0,0,0,0,0,0,0,0,0,0,0,0,-0.085,-0.086,-0.0826,-0.0831,-0.0831,-0.0821,-0.0821,-0.0821,-0.0832,-0.0833,-0.0833,-0.0834,-0.0824,-0.0824,-0.0823,-0.0807,0,0,-0.082,-0.082,0,0,0,0,0,0,0,0,-0.0851,-0.0849,-0.083,-0.083,-0.0831,-0.0828,-0.083,-0.0816,-0.0832,-0.0832,-0.0833,-0.0834,-0.0824,-0.0824,-0.0822,-0.0807,-0.0806,-0.082,-0.082,-0.0819,-0.0819,0,0,0,0,0,0,0,-0.0851,-0.0849,-0.0824,-0.083,-0.083,-0.0839,-0.0837,-0.0828,-0.0825,-0.0832,-0.0833,-0.0832,-0.0825,-0.0823,-0.0822,-0.0806,-0.082,-0.0819,-0.0819,-0.0819,-0.079,-0.079,0,0,0,0,0,0,-0.085,-0.085,-0.0824,-0.0824,-0.0842,-0.0837,-0.0836,-0.0828,-0.0826,-0.0826,-0.0831,-0.0832,-0.0824,-0.0823,-0.0821,-0.0803,-0.0819,-0.0818,-0.0818,-0.0791,-0.079,-0.079,0,0,0,0,0,0,-0.0851,-0.0847,-0.0824,-0.0837,-0.0835,-0.0836,-0.0827,-0.0828,-0.0827,-0.0825,-0.0825,-0.083,-0.0824,-0.0823,-0.0812,-0.0803,-0.0818,-0.0817,-0.0791,-0.0791,-0.079,-0.0766,0,0,0,0,0,0,-0.0852,-0.0848,-0.0843,-0.0837,-0.0834,-0.0817,-0.0827,-0.0827,-0.0826,-0.0827,-0.0824,-0.0824,-0.0824,-0.0813,-0.0811,-0.0802,-0.0817,-0.0791,-0.0791,-0.079,-0.0767,-0.0765,-0.0763,0,0,0,0,0,-0.0853,-0.0843,-0.0843,-0.084,-0.0827,-0.0817,-0.0816,-0.082,-0.0825,-0.0822,-0.0821,-0.0824,-0.081,-0.0812,-0.081,-0.08,-0.0791,-0.0791,-0.079,-0.0768,-0.0765,-0.0763,0,0,0,0,0,0,-0.0851,-0.0843,-0.0843,-0.0829,-0.0824,-0.0819,-0.0816,-0.0818,-0.0814,-0.0815,-0.0816,-0.0816,-0.0805,-0.0806,-0.0809,-0.0792,-0.0803,-0.0802,-0.0786,-0.0784,-0.0782,-0.0778,-0.0816,0,0,0,0,0,-0.0849,-0.0841,-0.0834,-0.0822,-0.082,-0.0818,-0.0815,-0.0815,-0.0811,-0.081,-0.0806,-0.0804,-0.08,-0.0795,-0.0791,-0.0777,-0.078,-0.0771,-0.0769,-0.0767,-0.0763,-0.0761,-0.0759,-0.0788,-0.0788,-0.0788,0,0,-0.0841,-0.0839,-0.0832,-0.0822,-0.0818,-0.0804,-0.0817,-0.0809,-0.0796,-0.0808,-0.0789,-0.0795,-0.0795,-0.0783,-0.0778,-0.0782,-0.0761,-0.0767,-0.0765,-0.0762,-0.0761,-0.0758,-0.0755,-0.0788,-0.0788,-0.0788,0,0,-0.0825,-0.0822,-0.0811,-0.0806,-0.08,-0.0796,-0.0793,-0.0785,-0.0783,-0.0766,-0.0775,-0.0775,-0.0761,-0.0763,-0.0762,-0.0745,-0.0751,-0.0746,-0.0728,-0.0726,-0.0724,-0.0721,-0.0722,-0.072,-0.0743,-0.0743,-0.0743,0,-0.0818,-0.08,-0.0806,-0.0794,-0.0784,-0.079,-0.0771,-0.0766,-0.0755,-0.075,-0.0756,-0.0748,-0.075,-0.074,-0.0738,-0.0739,-0.0741,-0.0736,-0.0723,-0.0721,-0.0719,-0.072,-0.0718,-0.0742,-0.0742,-0.0742,-0.0742,0,-0.079,-0.0778,-0.077,-0.0755,-0.0747,-0.0731,-0.0725,-0.0719,-0.0717,-0.0711,-0.0703,-0.071,-0.0707,-0.071,-0.0717,-0.0707,-0.0714,-0.0722,-0.0728,-0.0715,-0.0717,-0.0715,-0.074,-0.074,-0.0741,-0.0741,0,0,-0.0769,-0.0752,-0.0748,-0.0737,-0.0724,-0.0712,-0.0695,-0.0679,-0.0671,-0.0665,-0.065,-0.0653,-0.0666,-0.0667,-0.0681,-0.0681,-0.0673,-0.0694,-0.0695,-0.0692,-0.067,-0.0683,-0.0683,-0.0678,-0.0678,-0.0678,-0.0676,0,-0.0744,-0.071,-0.0709,-0.0676,-0.0659,-0.0662,-0.0645,-0.0636,-0.0634,-0.0622,-0.0632,-0.0626,-0.0647,-0.0651,-0.0653,-0.0667,-0.0668,-0.0672,-0.0685,-0.0686,-0.0697,-0.0681,-0.0658,-0.0656,-0.0675,-0.0675,-0.0675,0,-0.0722,-0.0698,-0.0658,-0.064,-0.0632,-0.0615,-0.0598,-0.0585,-0.058,-0.0582,-0.0583,-0.0593,-0.0593,-0.0615,-0.0626,-0.0628,-0.0646,-0.0659,-0.0659,-0.0678,-0.0696,-0.0673,-0.0652,-0.0617,-0.0672,-0.0673,-0.0673,0,-0.0705,-0.0672,-0.0635,-0.0624,-0.0598,-0.0587,-0.0576,-0.057,-0.0562,-0.0558,-0.0554,-0.0559,-0.0559,-0.0578,-0.0606,-0.0615,-0.0617,-0.0634,-0.0663,-0.0664,-0.065,-0.0651,-0.0594,-0.0641,-0.0641,-0.0641,-0.0641,0,-0.0686,-0.066,-0.0624,-0.0603,-0.0564,-0.0563,-0.0539,-0.0536,-0.0533,-0.0516,-0.0532,-0.0522,-0.0551,-0.0557,-0.0587,-0.0615,-0.0603,-0.0654,-0.0662,-0.0642,-0.0642,-0.0616,-0.0626,-0.0641,-0.0641,-0.0641,-0.0641,0,-0.0675,-0.0653,-0.0608,-0.0567,-0.0557,-0.0527,-0.0511,-0.0501,-0.0505,-0.0484,-0.0482,-0.0488,-0.0492,-0.0523,-0.0549,-0.0592,-0.0628,-0.0635,-0.0611,-0.0616,-0.0622,-0.0633,-0.0724,-0.0704,-0.0667,-0.0667,-0.0667,0,-0.0664,-0.064,-0.0576,-0.0545,-0.0524,-0.0492,-0.0478,-0.0481,-0.0473,-0.0461,-0.0445,-0.0446,-0.0432,-0.0476,-0.0543,-0.0594,-0.0617,-0.0625,-0.0644,-0.0611,-0.0628,-0.0725,-0.0706,-0.0614,-0.0614,-0.0614,-0.0614,0,-0.0635,-0.061,-0.0566,-0.051,-0.0479,-0.0445,-0.0427,-0.0418,-0.042,-0.0404,-0.038,-0.0367,-0.0406,-0.0436,-0.0515,-0.056,-0.0631,-0.0625,-0.0588,-0.058,-0.0684,-0.067,-0.0628,-0.0612,-0.0612,-0.0612,-0.0612,-0.0612,-0.0608,-0.057,-0.052,-0.0472,-0.0434,-0.0402,-0.0374,-0.0361,-0.0338,-0.0286,-0.0302,-0.0238,-0.029,-0.0388,-0.049,-0.0571,-0.0629,-0.058,-0.0595,-0.0696,-0.068,-0.064,-0.0638,-0.0638,-0.0639,-0.0639,-0.0639,0,-0.0566,-0.0536,-0.0493,-0.0429,-0.0391,-0.038,-0.0342,-0.0304,-0.0262,-0.0196,-0.0156,-0.0077,-0.0149,-0.0246,-0.0353,-0.0463,-0.0589,-0.0524,-0.0612,-0.059,-0.0527,-0.0521,-0.0496,-0.0496,-0.0496,-0.0496,-0.0496,-0.0496,-0.0536,-0.0492,-0.048,-0.0412,-0.0371,-0.0305,-0.0277,-0.021,-0.0148,-0.0013,0.0086,0.0159,0.0254,-0.001,-0.0185,-0.0314,-0.0415,-0.0574,-0.0565,-0.0455,-0.046,-0.0465,-0.0458,-0.0419,-0.0419,-0.0624,-0.0626,-0.0627]}],[{"header":{"parameterUnit":"m.s-1","parameterCategory":2,"la1":30.2991,"la2":30.254,"lo1":-89.0895,"lo2":-89.0444,"dy":0.0017,"dx":0.0017,"nx":28,"ny":28,"refTime":"2023-05-01T21:00:00:Z","depth":"2","parameterNumber":2,"parameterNumberName":"U-component_of_CURRENTS"},"data":[0,0,0,0,0,0,0,0,0,0,0,0,0,0,0,0,0,0,0,0,0,0,0,0,0,0,0,0,0,0,0,0,0,0,0,0,0,0,0,0,0,0,0,0,0,0,0,0,0,0,0,0,0,0,0,0,0,0,-0.1904,-0.1904,0,-0.1923,-0.1923,-0.1924,-0.1818,-0.1814,-0.1811,-0.1808,-0.1781,-0.1784,-0.1786,0,0,0,0,0,0,0,0,0,0,0,0,0,-0.1896,-0.1896,-0.1904,-0.1904,-0.1904,-0.1923,-0.1923,-0.1924,-0.1818,-0.1814,-0.181,-0.1806,-0.178,-0.1783,-0.1786,0,0,0,0,0,0,0,0,0,0,0,0,0,-0.1909,-0.1896,-0.1904,-0.1851,-0.1846,-0.1922,-0.1923,-0.1924,-0.1819,-0.1814,-0.1809,-0.1805,-0.1779,-0.1783,-0.1787,-0.1909,0,0,-0.1798,-0.1799,0,0,0,0,0,0,0,0,-0.1908,-0.191,-0.1859,-0.1855,-0.185,-0.186,-0.191,-0.1916,-0.1821,-0.1833,-0.1808,-0.1802,-0.1805,-0.1806,-0.1826,-0.1908,-0.1907,-0.1798,-0.18,-0.1802,-0.1803,0,0,0,0,0,0,0,-0.1907,-0.1909,-0.1915,-0.1859,-0.1854,-0.1867,-0.1862,-0.1912,-0.1849,-0.1832,-0.1823,-0.1821,-0.1801,-0.1823,-0.1825,-0.1906,-0.1798,-0.1801,-0.1803,-0.1805,-0.1889,-0.1889,0,0,0,0,0,0,-0.1898,-0.1908,-0.1914,-0.1915,-0.1863,-0.187,-0.1865,-0.1864,-0.1849,-0.1841,-0.1826,-0.1816,-0.1819,-0.1821,-0.1823,-0.1754,-0.1802,-0.1805,-0.1807,-0.1889,-0.1889,-0.1889,0,0,0,0,0,0,-0.1897,-0.1898,-0.1914,-0.1909,-0.1911,-0.1874,-0.1875,-0.1867,-0.1801,-0.1844,-0.1835,-0.1755,-0.1816,-0.1818,-0.1813,-0.176,-0.1807,-0.181,-0.1889,-0.1889,-0.1889,-0.1753,0,0,0,0,0,0,-0.1897,-0.1898,-0.1868,-0.1908,-0.1911,-0.1914,-0.1879,-0.1871,-0.1811,-0.1796,-0.1784,-0.1781,-0.1812,-0.1807,-0.1816,-0.1765,-0.1813,-0.1889,-0.1889,-0.1889,-0.1757,-0.1748,-0.1741,0,0,0,0,0,-0.1897,-0.1877,-0.1867,-0.1865,-0.1879,-0.1913,-0.1916,-0.1876,-0.1811,-0.1794,-0.178,-0.1776,-0.1813,-0.1811,-0.1821,-0.177,-0.1889,-0.1889,-0.1889,-0.1761,-0.175,-0.1741,0,0,0,0,0,0,-0.1847,-0.1866,-0.1854,-0.1836,-0.1852,-0.1892,-0.1861,-0.1838,-0.1816,-0.1772,-0.1792,-0.1792,-0.1767,-0.1807,-0.1803,-0.1801,-0.1846,-0.1848,-0.1745,-0.1736,-0.1727,-0.1727,-0.1816,0,0,0,0,0,-0.1831,-0.1815,-0.185,-0.1827,-0.1828,-0.1832,-0.1823,-0.1803,-0.1805,-0.1783,-0.1774,-0.1777,-0.1801,-0.1788,-0.1826,-0.1833,-0.1848,-0.1808,-0.1799,-0.1791,-0.1802,-0.1802,-0.1793,-0.189,-0.189,-0.189,0,0,-0.1802,-0.181,-0.1796,-0.1814,-0.1815,-0.183,-0.1811,-0.1785,-0.1777,-0.1793,-0.1744,-0.1749,-0.18,-0.18,-0.179,-0.1805,-0.1762,-0.1792,-0.1784,-0.1799,-0.1801,-0.1791,-0.1783,-0.189,-0.189,-0.189,0,0,-0.1772,-0.1746,-0.1735,-0.1749,-0.1746,-0.1771,-0.1743,-0.1749,-0.1717,-0.1709,-0.1707,-0.1681,-0.171,-0.1733,-0.1753,-0.1733,-0.1725,-0.172,-0.1662,-0.166,-0.1652,-0.1644,-0.1593,-0.1583,-0.1705,-0.1704,-0.1704,0,-0.1733,-0.173,-0.1737,-0.1741,-0.1738,-0.1732,-0.1731,-0.1734,-0.1726,-0.1713,-0.1667,-0.1681,-0.169,-0.1711,-0.1681,-0.1708,-0.1688,-0.1683,-0.1645,-0.1638,-0.1633,-0.1583,-0.1573,-0.1698,-0.1699,-0.1699,-0.17,0,-0.1723,-0.1702,-0.1693,-0.1703,-0.1708,-0.1697,-0.1719,-0.1692,-0.164,-0.1646,-0.1612,-0.1625,-0.1626,-0.1612,-0.163,-0.1599,-0.1585,-0.1633,-0.1656,-0.1614,-0.1565,-0.1557,-0.1689,-0.1691,-0.1693,-0.1695,0,0,-0.1652,-0.1688,-0.1662,-0.1668,-0.1676,-0.1686,-0.1676,-0.169,-0.1661,-0.1625,-0.1594,-0.1588,-0.1549,-0.1572,-0.1571,-0.1552,-0.1455,-0.1547,-0.155,-0.1471,-0.1392,-0.1255,-0.1234,-0.1475,-0.1474,-0.1473,-0.135,0,-0.1627,-0.1643,-0.1656,-0.1642,-0.1654,-0.1656,-0.1656,-0.1656,-0.1638,-0.1612,-0.1598,-0.1565,-0.1552,-0.15,-0.1485,-0.1489,-0.1437,-0.1481,-0.147,-0.1469,-0.1332,-0.1222,-0.1221,-0.1101,-0.1342,-0.1341,-0.134,0,-0.1581,-0.1607,-0.1599,-0.1627,-0.1623,-0.1595,-0.1578,-0.158,-0.1577,-0.1552,-0.152,-0.1518,-0.1477,-0.1463,-0.1418,-0.1434,-0.1387,-0.138,-0.1377,-0.1301,-0.1318,-0.1198,-0.1078,-0.1327,-0.1328,-0.1329,-0.133,0,-0.1518,-0.1544,-0.1535,-0.1538,-0.1577,-0.1528,-0.1516,-0.1516,-0.1502,-0.1476,-0.1435,-0.1445,-0.137,-0.1373,-0.1322,-0.1354,-0.1267,-0.1331,-0.1164,-0.1153,-0.1182,-0.1173,-0.1279,-0.1279,-0.1279,-0.1279,-0.128,0,-0.1478,-0.1448,-0.1481,-0.1464,-0.141,-0.1448,-0.1373,-0.1369,-0.1362,-0.1312,-0.135,-0.1286,-0.1332,-0.1297,-0.1299,-0.117,-0.1237,-0.1118,-0.1106,-0.1127,-0.1115,-0.1368,-0.138,-0.1275,-0.1276,-0.1277,-0.1277,0,-0.1372,-0.1406,-0.1385,-0.1394,-0.1364,-0.1296,-0.1242,-0.122,-0.1206,-0.1135,-0.1105,-0.1125,-0.1038,-0.1089,-0.1068,-0.1067,-0.1028,-0.0965,-0.0947,-0.0932,-0.0922,-0.093,-0.0775,-0.0769,-0.0764,-0.076,-0.0756,0,-0.1326,-0.1306,-0.1281,-0.1232,-0.1192,-0.1115,-0.1063,-0.1083,-0.1059,-0.1007,-0.096,-0.0879,-0.0817,-0.0748,-0.0725,-0.0689,-0.0803,-0.0672,-0.0742,-0.0864,-0.0868,-0.0883,-0.0897,-0.0717,-0.0713,-0.071,-0.0708,0,-0.1225,-0.1186,-0.1175,-0.1078,-0.0989,-0.0949,-0.0868,-0.0841,-0.0848,-0.0792,-0.0682,-0.0639,-0.0532,-0.0495,-0.0454,-0.0457,-0.0696,-0.06,-0.075,-0.0826,-0.0794,-0.0803,-0.0822,-0.0682,-0.0684,-0.0686,-0.0688,-0.0689,-0.1101,-0.1061,-0.1018,-0.0904,-0.0847,-0.0765,-0.0701,-0.0663,-0.059,-0.0564,-0.0541,-0.0468,-0.0492,-0.0371,-0.0344,-0.0301,-0.0338,-0.0446,-0.0462,-0.0481,-0.0477,-0.0436,-0.0254,-0.0254,-0.0254,-0.0254,-0.0254,0,-0.0987,-0.0933,-0.0849,-0.0753,-0.0682,-0.065,-0.0584,-0.0597,-0.049,-0.0452,-0.0424,-0.0364,-0.0358,-0.0323,-0.0185,-0.0169,-0.0252,-0.0217,-0.038,-0.0404,-0.0426,-0.0429,-0.0188,-0.0187,-0.0187,-0.0187,0,0,-0.0929,-0.0823,-0.0786,-0.0609,-0.0534,-0.0447,-0.0398,-0.045,-0.0455,-0.036,-0.0278,-0.046,-0.0342,-0.029,-0.0286,-0.0205,-0.0319,-0.0203,-0.0261,-0.0481,-0.0503,-0.0558,-0.0585,0,0,0,0,0]},{"header":{"parameterUnit":"m.s-1","parameterCategory":2,"la1":30.2991,"la2":30.254,"lo1":-89.0895,"lo2":-89.0444,"dy":0.0017,"dx":0.0017,"nx":28,"ny":28,"refTime":"2023-05-01T21:00:00:Z","depth":"2","parameterNumber":3,"parameterNumberName":"V-component_of_CURRENTS"},"data":[0,0,0,0,0,0,0,0,0,0,0,0,0,0,0,0,0,0,0,0,0,0,0,0,0,0,0,0,0,0,0,0,0,0,0,0,0,0,0,0,0,0,0,0,0,0,0,0,0,0,0,0,0,0,0,0,0,0,0.0483,0.0483,0,0.05,0.05,0.0501,0.0468,0.0466,0.0465,0.0464,0.0429,0.0429,0.0429,0,0,0,0,0,0,0,0,0,0,0,0,0,0.0525,0.0524,0.0483,0.0483,0.0483,0.05,0.0501,0.0501,0.0468,0.0466,0.0465,0.0463,0.0429,0.0429,0.0429,0,0,0,0,0,0,0,0,0,0,0,0,0,0.0523,0.0524,0.0483,0.0468,0.0466,0.05,0.0501,0.0501,0.0468,0.0466,0.0464,0.0463,0.0428,0.0429,0.0429,0.047,0,0,0.043,0.043,0,0,0,0,0,0,0,0,0.0523,0.0521,0.047,0.0469,0.0467,0.0478,0.0502,0.0487,0.0469,0.047,0.0464,0.0462,0.044,0.044,0.0451,0.0468,0.0466,0.043,0.0431,0.0431,0.0431,0,0,0,0,0,0,0,0.0523,0.0521,0.0492,0.047,0.0468,0.0495,0.0491,0.05,0.0466,0.0469,0.0466,0.0466,0.0439,0.0451,0.0449,0.0466,0.043,0.0431,0.0431,0.0431,0.045,0.045,0,0,0,0,0,0,0.0513,0.0521,0.0491,0.0492,0.0489,0.0495,0.0491,0.0478,0.0467,0.0463,0.0467,0.0464,0.0451,0.0449,0.0448,0.0423,0.0431,0.0431,0.0431,0.045,0.045,0.045,0,0,0,0,0,0,0.0514,0.051,0.0491,0.0506,0.0505,0.0495,0.0481,0.0479,0.0461,0.0466,0.0461,0.0446,0.0449,0.0447,0.0437,0.0423,0.0431,0.0432,0.0449,0.045,0.045,0.0418,0,0,0,0,0,0,0.0515,0.051,0.0498,0.0505,0.0504,0.0492,0.0483,0.0481,0.0464,0.0459,0.0447,0.0444,0.0448,0.0437,0.0438,0.0424,0.0432,0.0449,0.045,0.045,0.0419,0.0418,0.0416,0,0,0,0,0,0.0516,0.0506,0.0497,0.0493,0.0486,0.0492,0.0494,0.0483,0.0464,0.0458,0.0451,0.0442,0.0441,0.0438,0.0439,0.0424,0.0449,0.0449,0.045,0.042,0.0418,0.0417,0,0,0,0,0,0,0.0522,0.0502,0.0492,0.0475,0.0474,0.0485,0.0481,0.0471,0.0463,0.0452,0.0448,0.0445,0.0428,0.044,0.0436,0.0434,0.0443,0.0444,0.042,0.0418,0.0417,0.0436,0.0432,0,0,0,0,0,0.0518,0.05,0.0492,0.0481,0.0476,0.0475,0.0473,0.0465,0.0461,0.0454,0.0445,0.0442,0.0441,0.0436,0.0439,0.0443,0.0469,0.0436,0.0435,0.0434,0.0452,0.0485,0.0488,0.0453,0.0453,0.0452,0,0,0.0523,0.0506,0.0499,0.0481,0.048,0.0478,0.0468,0.0461,0.0458,0.0454,0.044,0.0432,0.044,0.0438,0.0432,0.0439,0.0454,0.0434,0.0433,0.0453,0.0486,0.049,0.0493,0.0453,0.0453,0.0453,0,0,0.0531,0.0502,0.0493,0.0486,0.0473,0.0472,0.0461,0.0455,0.0446,0.0439,0.0433,0.0427,0.0418,0.0433,0.0437,0.0437,0.0442,0.0419,0.0431,0.0461,0.0465,0.0468,0.0489,0.0495,0.0423,0.0423,0.0423,0,0.0531,0.0517,0.0496,0.0487,0.048,0.0462,0.0459,0.0458,0.0449,0.0452,0.0426,0.0435,0.0427,0.0448,0.0436,0.0434,0.0445,0.043,0.0459,0.0463,0.0467,0.0488,0.0495,0.0421,0.0421,0.0422,0.0422,0,0.054,0.0521,0.0516,0.0492,0.0486,0.0478,0.0468,0.046,0.0438,0.0443,0.0442,0.0443,0.045,0.0438,0.043,0.0452,0.0446,0.0447,0.0461,0.0469,0.0491,0.0498,0.0419,0.042,0.042,0.0421,0,0,0.0537,0.0523,0.0516,0.0504,0.0482,0.0475,0.0474,0.0475,0.047,0.0466,0.0472,0.047,0.0464,0.0471,0.0463,0.0486,0.0502,0.0468,0.047,0.0485,0.0556,0.0547,0.0554,0.0495,0.0497,0.0498,0.0554,0,0.0541,0.0529,0.0522,0.0506,0.0494,0.0482,0.0481,0.048,0.0472,0.0473,0.0493,0.0485,0.0479,0.0461,0.0489,0.0493,0.0522,0.0487,0.0551,0.0554,0.0541,0.0563,0.0547,0.0595,0.0561,0.0562,0.0563,0,0.0539,0.0528,0.0523,0.05,0.0494,0.049,0.0476,0.0472,0.0486,0.0478,0.0497,0.0494,0.0524,0.0506,0.0564,0.0532,0.0546,0.0561,0.0563,0.0578,0.0559,0.0586,0.061,0.0576,0.0575,0.0574,0.0573,0,0.0532,0.0517,0.0512,0.0503,0.0487,0.0488,0.0478,0.0481,0.0469,0.0482,0.0465,0.0515,0.0503,0.0559,0.0566,0.0561,0.0623,0.0628,0.065,0.0649,0.0665,0.0663,0.0689,0.0689,0.0689,0.0689,0.0689,0,0.0521,0.0514,0.0509,0.0499,0.0489,0.0479,0.0467,0.0464,0.046,0.0451,0.0462,0.0461,0.0508,0.0535,0.0578,0.0628,0.0639,0.0668,0.0671,0.0651,0.0647,0.0657,0.0653,0.0691,0.0691,0.069,0.069,0,0.052,0.0515,0.0505,0.0491,0.0485,0.0477,0.0449,0.0439,0.0426,0.0414,0.041,0.0414,0.0448,0.0499,0.0569,0.0619,0.0686,0.0699,0.0662,0.0661,0.0694,0.0688,0.0764,0.0764,0.0764,0.0765,0.0765,0,0.0528,0.0521,0.0497,0.0489,0.0487,0.0469,0.0453,0.043,0.0412,0.0392,0.0386,0.0394,0.047,0.0563,0.0635,0.0741,0.0676,0.0721,0.073,0.0711,0.0706,0.0699,0.0692,0.0734,0.0734,0.0734,0.0733,0,0.0539,0.0528,0.0514,0.0496,0.0481,0.0459,0.0435,0.042,0.0392,0.0423,0.0457,0.0533,0.0585,0.0679,0.074,0.0791,0.0711,0.0724,0.0725,0.0709,0.0685,0.0679,0.0673,0.0733,0.0733,0.0733,0.0733,0.0733,0.0554,0.0536,0.0513,0.0495,0.0489,0.0476,0.0495,0.049,0.0524,0.052,0.0543,0.0601,0.0493,0.0626,0.07,0.0767,0.0809,0.0752,0.0752,0.0751,0.073,0.0707,0.0755,0.0755,0.0755,0.0755,0.0755,0,0.0556,0.052,0.0512,0.0499,0.0522,0.0505,0.0505,0.0542,0.0652,0.0522,0.0601,0.0478,0.0593,0.053,0.0722,0.0809,0.082,0.0719,0.0701,0.0703,0.0704,0.0679,0.0691,0.069,0.069,0.069,0,0,0.0553,0.0526,0.0508,0.0535,0.0551,0.0606,0.0641,0.0692,0.0638,0.0555,0.0474,0.0378,0.042,0.0396,0.0493,0.0641,0.0639,0.0631,0.0682,0.0651,0.0651,0.073,0.0694,0,0,0,0,0]}],[{"header":{"parameterUnit":"m.s-1","parameterCategory":2,"la1":30.2991,"la2":30.254,"lo1":-89.0895,"lo2":-89.0444,"dy":0.0017,"dx":0.0017,"nx":28,"ny":28,"refTime":"2023-05-01T21:00:00:Z","depth":"4","parameterNumber":2,"parameterNumberName":"U-component_of_CURRENTS"},"data":[0,0,0,0,0,0,0,0,0,0,0,0,0,0,0,0,0,0,0,0,0,0,0,0,0,0,0,0,0,0,0,0,0,0,0,0,0,0,0,0,0,0,0,0,0,0,0,0,0,0,0,0,0,0,0,0,0,0,-0.0926,-0.0927,0,-0.0947,-0.0947,-0.0947,-0.0946,-0.0947,-0.0947,-0.0947,-0.1005,-0.1007,-0.1008,0,0,0,0,0,0,0,0,0,0,0,0,0,-0.0881,-0.0881,-0.0926,-0.0927,-0.0928,-0.0947,-0.0947,-0.0947,-0.0946,-0.0947,-0.0947,-0.0947,-0.1005,-0.1006,-0.1008,0,0,0,0,0,0,0,0,0,0,0,0,0,-0.0896,-0.0881,-0.0926,-0.0934,-0.0935,-0.0947,-0.0947,-0.0947,-0.0946,-0.0947,-0.0947,-0.0947,-0.1004,-0.1006,-0.1008,-0.1013,0,0,-0.1014,-0.1015,0,0,0,0,0,0,0,0,-0.0895,-0.0897,-0.0932,-0.0934,-0.0935,-0.095,-0.0953,-0.0973,-0.0946,-0.0936,-0.0947,-0.0947,-0.0994,-0.0996,-0.0991,-0.1016,-0.1018,-0.1014,-0.1016,-0.1016,-0.1017,0,0,0,0,0,0,0,-0.0894,-0.0896,-0.0929,-0.0933,-0.0935,-0.0936,-0.0937,-0.0956,-0.0959,-0.0937,-0.0938,-0.095,-0.0994,-0.0989,-0.0992,-0.1019,-0.1014,-0.1016,-0.1017,-0.1018,-0.1193,-0.1196,0,0,0,0,0,0,-0.0903,-0.0895,-0.0928,-0.093,-0.0922,-0.0937,-0.0938,-0.094,-0.0958,-0.0962,-0.095,-0.095,-0.0985,-0.099,-0.0995,-0.1121,-0.1016,-0.1018,-0.1019,-0.1189,-0.1193,-0.1197,0,0,0,0,0,0,-0.0901,-0.0905,-0.0927,-0.0918,-0.0922,-0.0938,-0.0939,-0.094,-0.096,-0.0968,-0.0972,-0.0972,-0.0986,-0.0992,-0.1056,-0.1119,-0.1019,-0.1021,-0.1185,-0.1191,-0.1195,-0.1298,0,0,0,0,0,0,-0.09,-0.0904,-0.0905,-0.0918,-0.0923,-0.0945,-0.0939,-0.0941,-0.0968,-0.0969,-0.0989,-0.0992,-0.0987,-0.1053,-0.1058,-0.112,-0.1023,-0.1181,-0.1188,-0.1194,-0.129,-0.1306,-0.132,0,0,0,0,0,-0.0898,-0.0906,-0.0905,-0.091,-0.0925,-0.0947,-0.0948,-0.0957,-0.0969,-0.0976,-0.1015,-0.0993,-0.1098,-0.1057,-0.1062,-0.1126,-0.1178,-0.1186,-0.1193,-0.1284,-0.1303,-0.1319,0,0,0,0,0,0,-0.0891,-0.0908,-0.0907,-0.092,-0.0936,-0.0949,-0.0959,-0.0974,-0.1007,-0.1018,-0.1028,-0.1036,-0.1125,-0.1111,-0.1066,-0.1199,-0.1138,-0.1147,-0.1205,-0.1223,-0.1238,-0.1239,-0.1024,0,0,0,0,0,-0.0889,-0.0898,-0.0915,-0.0927,-0.0935,-0.0952,-0.0964,-0.0976,-0.1008,-0.1022,-0.105,-0.1092,-0.1155,-0.1177,-0.1216,-0.1273,-0.1259,-0.1323,-0.1338,-0.135,-0.1358,-0.1494,-0.1522,-0.1223,-0.1223,-0.1222,0,0,-0.0896,-0.0903,-0.0911,-0.0927,-0.0937,-0.0941,-0.0959,-0.0988,-0.1011,-0.1026,-0.1081,-0.1147,-0.1187,-0.1268,-0.1305,-0.1264,-0.14,-0.136,-0.137,-0.1371,-0.1505,-0.1535,-0.156,-0.1228,-0.1227,-0.1226,0,0,-0.0895,-0.0914,-0.0909,-0.0923,-0.0946,-0.0955,-0.0972,-0.1007,-0.1042,-0.1113,-0.1151,-0.1248,-0.1317,-0.1363,-0.1397,-0.1511,-0.1486,-0.1545,-0.1607,-0.1741,-0.1766,-0.1789,-0.168,-0.1693,-0.154,-0.154,-0.154,0,-0.0896,-0.0889,-0.0915,-0.0912,-0.0921,-0.0964,-0.0961,-0.1005,-0.1067,-0.111,-0.1144,-0.1326,-0.1359,-0.1475,-0.154,-0.1541,-0.1558,-0.1533,-0.176,-0.1784,-0.1805,-0.1689,-0.1702,-0.1546,-0.1545,-0.1544,-0.1544,0,-0.0883,-0.0881,-0.0887,-0.0886,-0.0902,-0.0918,-0.097,-0.1026,-0.1096,-0.1144,-0.1305,-0.1404,-0.1524,-0.1561,-0.1597,-0.1776,-0.1707,-0.1773,-0.1711,-0.1842,-0.1708,-0.172,-0.1554,-0.1552,-0.155,-0.1549,0,0,-0.0869,-0.0871,-0.0871,-0.0868,-0.0892,-0.0909,-0.0966,-0.1025,-0.1082,-0.1219,-0.1312,-0.1502,-0.1614,-0.1664,-0.1749,-0.1861,-0.1993,-0.1911,-0.1915,-0.1787,-0.2155,-0.1836,-0.1815,-0.2158,-0.2164,-0.2169,-0.1951,0,-0.0843,-0.0822,-0.0831,-0.0831,-0.0828,-0.0885,-0.0931,-0.1006,-0.11,-0.1206,-0.1377,-0.1525,-0.1639,-0.1757,-0.1904,-0.2009,-0.2054,-0.2035,-0.2059,-0.2053,-0.1752,-0.1832,-0.2188,-0.1959,-0.1961,-0.1963,-0.1964,0,-0.0809,-0.0806,-0.0791,-0.0809,-0.0815,-0.0841,-0.0927,-0.098,-0.1126,-0.1228,-0.1428,-0.1561,-0.1783,-0.187,-0.2106,-0.2121,-0.2156,-0.2188,-0.2183,-0.1871,-0.1764,-0.1837,-0.1984,-0.1983,-0.1981,-0.198,-0.1979,0,-0.0777,-0.0773,-0.0764,-0.0772,-0.0807,-0.085,-0.0893,-0.1002,-0.1059,-0.1283,-0.1347,-0.1635,-0.1782,-0.1986,-0.2037,-0.2169,-0.2149,-0.2326,-0.2003,-0.197,-0.2273,-0.2252,-0.2445,-0.2446,-0.2446,-0.2447,-0.2447,0,-0.0731,-0.0729,-0.077,-0.0773,-0.0798,-0.0849,-0.0889,-0.1,-0.1122,-0.1156,-0.1406,-0.1455,-0.1864,-0.1875,-0.1986,-0.1929,-0.2112,-0.1991,-0.1943,-0.2295,-0.2282,-0.2269,-0.2252,-0.2438,-0.244,-0.2442,-0.2443,0,-0.0687,-0.0702,-0.0707,-0.076,-0.0782,-0.0822,-0.087,-0.0903,-0.1048,-0.1104,-0.1199,-0.1388,-0.1454,-0.156,-0.1744,-0.1786,-0.1783,-0.1664,-0.1777,-0.174,-0.1535,-0.1526,-0.1468,-0.1456,-0.1446,-0.1438,-0.143,0,-0.0656,-0.0655,-0.0695,-0.0693,-0.0725,-0.0763,-0.0773,-0.0899,-0.0909,-0.0986,-0.0989,-0.1067,-0.1159,-0.1064,-0.1258,-0.1292,-0.1319,-0.1277,-0.1708,-0.15,-0.146,-0.1467,-0.1471,-0.1414,-0.1412,-0.1409,-0.1406,0,-0.0606,-0.0632,-0.0629,-0.0637,-0.0656,-0.0627,-0.0651,-0.065,-0.0748,-0.0851,-0.0816,-0.086,-0.0796,-0.0939,-0.0837,-0.0908,-0.1363,-0.1178,-0.1211,-0.1617,-0.1435,-0.1406,-0.1422,-0.1371,-0.1376,-0.138,-0.1382,0,-0.0574,-0.0557,-0.0563,-0.0566,-0.0553,-0.0506,-0.0521,-0.0501,-0.0537,-0.0656,-0.058,-0.0617,-0.072,-0.0704,-0.0615,-0.0637,-0.0837,-0.0995,-0.1043,-0.1083,-0.1075,-0.0795,-0.0482,0,0,0,0,0,-0.053,-0.0498,-0.0482,-0.0453,-0.0425,-0.0424,-0.0431,-0.0445,-0.0501,-0.0468,-0.0556,-0.0483,-0.0492,-0.0482,-0.0468,-0.0505,-0.0825,-0.0489,-0.1029,-0.1177,-0.1218,-0.1254,0,0,0,0,0,0,-0.0492,-0.0476,-0.0461,-0.0362,-0.0307,-0.0268,-0.0269,-0.0312,-0.0286,-0.0368,-0.0351,-0.0455,-0.0433,-0.0477,-0.0449,-0.0457,-0.0798,-0.052,-0.052,-0.1154,-0.1191,-0.1223,-0.1275,0,0,0,0,0]},{"header":{"parameterUnit":"m.s-1","parameterCategory":2,"la1":30.2991,"la2":30.254,"lo1":-89.0895,"lo2":-89.0444,"dy":0.0017,"dx":0.0017,"nx":28,"ny":28,"refTime":"2023-05-01T21:00:00:Z","depth":"4","parameterNumber":3,"parameterNumberName":"V-component_of_CURRENTS"},"data":[0,0,0,0,0,0,0,0,0,0,0,0,0,0,0,0,0,0,0,0,0,0,0,0,0,0,0,0,0,0,0,0,0,0,0,0,0,0,0,0,0,0,0,0,0,0,0,0,0,0,0,0,0,0,0,0,0,0,-0.0021,-0.0021,0,-0.0033,-0.0034,-0.0034,0.0008,0.001,0.0011,0.0012,0.0043,0.0042,0.0042,0,0,0,0,0,0,0,0,0,0,0,0,0,0.0013,0.0012,-0.0021,-0.0021,-0.0021,-0.0033,-0.0034,-0.0034,0.0008,0.001,0.0012,0.0013,0.0043,0.0042,0.0042,0,0,0,0,0,0,0,0,0,0,0,0,0,-0.0003,0.0012,-0.0021,-0.0,0.0001,-0.0033,-0.0034,-0.0034,0.0008,0.001,0.0012,0.0014,0.0043,0.0042,0.0041,-0.0006,0,0,0.0039,0.0039,0,0,0,0,0,0,0,0,-0.0002,-0.0004,-0.0004,-0.0002,0.0,-0.0007,-0.0011,-0.0022,0.0007,0.0003,0.0013,0.0015,0.0029,0.003,0.002,-0.0005,-0.0004,0.0039,0.0038,0.0038,0.0038,0,0,0,0,0,0,0,-0.0001,-0.0003,-0.0028,-0.0004,-0.0001,0.0001,0.0001,-0.0013,0.0004,0.0004,0.0007,0.0008,0.0031,0.002,0.0021,-0.0003,0.0039,0.0038,0.0038,0.0037,-0.0079,-0.0081,0,0,0,0,0,0,0.0003,-0.0003,-0.0027,-0.0028,0.0006,-0.0001,-0.0001,-0.0009,0.0003,0.0007,0.0006,0.001,0.0021,0.0022,0.0022,-0.0046,0.0038,0.0037,0.0037,-0.0076,-0.0079,-0.0082,0,0,0,0,0,0,0.0003,0.0,-0.0027,-0.0013,-0.0016,-0.0004,-0.0013,-0.001,-0.0015,0.0005,0.001,-0.0,0.0022,0.0023,-0.0001,-0.0043,0.0037,0.0036,-0.0073,-0.0077,-0.0081,-0.0174,0,0,0,0,0,0,0.0004,0.0,-0.0012,-0.0014,-0.0017,-0.0066,-0.0014,-0.0012,-0.0017,-0.0012,0.0,0.0005,0.0024,0.0,-0.0002,-0.0043,0.0036,-0.007,-0.0075,-0.008,-0.0168,-0.0181,-0.0192,0,0,0,0,0,0.0005,-0.0023,-0.0013,-0.0016,-0.0032,-0.0068,-0.0071,-0.0055,-0.0019,-0.0046,-0.0029,0.0005,-0.0032,-0.0003,-0.0004,-0.0047,-0.0068,-0.0074,-0.0079,-0.0162,-0.0178,-0.0192,0,0,0,0,0,0,-0.0014,-0.0021,-0.001,-0.0038,-0.0058,-0.006,-0.0079,-0.0063,-0.0072,-0.0058,-0.0027,-0.0024,-0.006,-0.0048,-0.0017,-0.0097,-0.0046,-0.0052,-0.0108,-0.0123,-0.0135,-0.0123,0.0035,0,0,0,0,0,-0.0025,-0.0046,-0.0055,-0.0079,-0.009,-0.0085,-0.0095,-0.0087,-0.009,-0.009,-0.0086,-0.0082,-0.0091,-0.0099,-0.0109,-0.0157,-0.0096,-0.0187,-0.0199,-0.0209,-0.0203,-0.0106,-0.0107,-0.0102,-0.0102,-0.0101,0,0,-0.0038,-0.0044,-0.0056,-0.0085,-0.0093,-0.0137,-0.0087,-0.0113,-0.0153,-0.0088,-0.0143,-0.0123,-0.0113,-0.0162,-0.0178,-0.0154,-0.0196,-0.0217,-0.0225,-0.0213,-0.0112,-0.0112,-0.0111,-0.0106,-0.0105,-0.0104,0,0,-0.0082,-0.0083,-0.0119,-0.0148,-0.0169,-0.0175,-0.0185,-0.0203,-0.0214,-0.0264,-0.0221,-0.0233,-0.026,-0.0263,-0.0264,-0.0355,-0.0258,-0.0353,-0.0408,-0.0315,-0.0313,-0.031,-0.0294,-0.0288,-0.0363,-0.0363,-0.0364,0,-0.0094,-0.0138,-0.0138,-0.0188,-0.0212,-0.0197,-0.0248,-0.0278,-0.0304,-0.032,-0.0296,-0.0325,-0.0316,-0.0358,-0.0378,-0.0383,-0.031,-0.035,-0.0325,-0.0321,-0.0316,-0.0299,-0.0291,-0.0369,-0.0368,-0.0367,-0.0367,0,-0.0171,-0.0209,-0.0236,-0.0291,-0.0327,-0.0367,-0.0402,-0.0442,-0.0442,-0.0455,-0.0496,-0.0484,-0.0487,-0.05,-0.0459,-0.0446,-0.0404,-0.0342,-0.0276,-0.0321,-0.0303,-0.0293,-0.0376,-0.0374,-0.0373,-0.0371,0,0,-0.019,-0.0269,-0.0282,-0.0317,-0.0378,-0.0413,-0.0495,-0.0552,-0.0589,-0.062,-0.0664,-0.0678,-0.0632,-0.0629,-0.0589,-0.0517,-0.0449,-0.0403,-0.0396,-0.0368,-0.0261,-0.0287,-0.028,-0.0334,-0.0331,-0.033,-0.0281,0,-0.0243,-0.0337,-0.0371,-0.0467,-0.0513,-0.0543,-0.0615,-0.0667,-0.0697,-0.0747,-0.0738,-0.076,-0.0696,-0.068,-0.0603,-0.0462,-0.0416,-0.047,-0.0238,-0.0233,-0.0231,-0.0267,-0.0322,-0.0273,-0.0271,-0.0269,-0.0268,0,-0.0313,-0.0359,-0.0455,-0.0535,-0.0558,-0.0626,-0.0711,-0.0775,-0.084,-0.0859,-0.0873,-0.0841,-0.0796,-0.0717,-0.0522,-0.0532,-0.0408,-0.031,-0.0304,-0.0278,-0.024,-0.0206,-0.025,-0.0252,-0.0253,-0.0254,-0.0255,0,-0.0318,-0.0422,-0.049,-0.0526,-0.0621,-0.0677,-0.0731,-0.0809,-0.0852,-0.0924,-0.0937,-0.089,-0.0849,-0.0672,-0.0509,-0.046,-0.029,-0.0206,-0.0151,-0.0154,-0.0099,-0.0101,-0.0076,-0.0076,-0.0077,-0.0077,-0.0077,0,-0.0361,-0.0422,-0.0504,-0.0547,-0.0629,-0.0697,-0.0777,-0.0846,-0.0915,-0.094,-0.0975,-0.0954,-0.0801,-0.0704,-0.0534,-0.0342,-0.0313,-0.0169,-0.0128,-0.0154,-0.0163,-0.0096,-0.0098,-0.0075,-0.0075,-0.0076,-0.0076,0,-0.0379,-0.0427,-0.0507,-0.0604,-0.0638,-0.0704,-0.0796,-0.0848,-0.092,-0.0956,-0.097,-0.0962,-0.0806,-0.0727,-0.0476,-0.038,-0.0206,-0.0164,-0.0291,-0.0257,-0.0125,-0.0134,-0.0042,-0.0042,-0.0042,-0.0042,-0.0042,0,-0.0402,-0.0443,-0.0535,-0.0574,-0.0628,-0.0712,-0.0762,-0.0849,-0.0872,-0.0918,-0.091,-0.0859,-0.0819,-0.0568,-0.0442,-0.0253,-0.0206,-0.0178,-0.0064,-0.0145,-0.0114,-0.0123,-0.0131,-0.0043,-0.0043,-0.0043,-0.0043,0,-0.0434,-0.0462,-0.0517,-0.058,-0.0644,-0.0702,-0.0763,-0.0776,-0.0837,-0.0886,-0.0828,-0.077,-0.0652,-0.0494,-0.044,-0.0263,-0.0214,-0.0177,-0.0172,-0.0063,-0.0144,-0.0116,-0.0124,-0.0043,-0.0043,-0.0043,-0.0043,0,-0.0448,-0.0479,-0.0527,-0.0584,-0.0652,-0.069,-0.0723,-0.0724,-0.0751,-0.0784,-0.0727,-0.068,-0.0637,-0.0498,-0.039,-0.0304,-0.0197,-0.0134,-0.0129,-0.0127,-0.0168,-0.0285,-0.0194,0,0,0,0,0,-0.0452,-0.0475,-0.0526,-0.0584,-0.0644,-0.0675,-0.0719,-0.0736,-0.0754,-0.0699,-0.0722,-0.061,-0.0486,-0.0436,-0.0332,-0.0349,-0.0193,-0.0225,-0.012,-0.0046,-0.0046,-0.0081,0,0,0,0,0,0,-0.0459,-0.0498,-0.0514,-0.0564,-0.0598,-0.0659,-0.0688,-0.0705,-0.0652,-0.066,-0.0582,-0.0567,-0.0435,-0.0535,-0.0323,-0.0301,-0.0215,-0.0173,-0.0171,-0.0047,-0.0046,-0.0046,-0.0082,0,0,0,0,0]}]]